Showing default

FLOCK 4G 32, 62643

Orbit data source: Space-Track

FLOCK 4G 32, 62643 is a payload satellite owned by Planet (US) in SSO that was launched on Tue, 14 Jan 2025 UTC via an FALCON 9 launch vehicle from the Air Force Western Test Range (AFWTR). Payload-class satellites include a variety of spacecraft equipped with specific instruments for various scientific and technological missions. These include communications satellites like Starlink; space stations such as the ISS; scientific satellites like the Hubble; Earth observation satellites from companies like Planet Labs, Umbra, and HawkEye 360; GPS; miniature CubeSats for education and research; and military/defense satellites.

Loading next visibility...
Identifier
62643, 2025-009AL
Orbit
SSO
Last TLE update
13 hours ago
Origin
Manufacturer
Planet
Mission
Operational Commercial Imaging
Bus & Motor
CUBESAT 3U, Unknown motor
Mass
5.7 kg wet, 5.7 kg dry
Launch date (UTC)
2025-01-14 (4 months ago)
Launch vehicle
FALCON 9
Launch site
Air Force Western Test Range (AFWTR)
Object type
Payload
Rocket body
Debris
Shape & HBR
Box + 2 Pan, 0.3 m
Radar Cross Section
0.035 m², Medium (>0.1 m² and < 1m²)

Expand to show TLE details & history

TLE from 13 hours ago
0 FLOCK 4G 32
1 62643U 25009AL  25128.75454700  .00007806  00000-0  36277-3 0  9996
2 62643  97.4256 209.5460 0000671 313.3633  46.7546 15.20256406 17289
Epoch: 2025-05-08T18:06Z
Definitive object data (Epoch: 2025-05-08T18:06:32.86Z)
Latitude
-0.00007°
Longitude
71.08859°
Altitude
507.84 km
Speed
7.61 km/s
True Right ascension
13h 58m 11s
True Declination
0° 00' 00"
Sunlit
Object was in full shadow at TLE epoch
Visualization TLE readout
Latitude
42.87985°
Longitude
64.70191°
Altitude
511.462 km
Speed
7.612 km/s
Apparent Right ascension
08h 36m 30s
Apparent Declination
16° 34' 07"
Sunlit
Object is in full shadow
Visualization observer readout
Local Sidereal Time
15:05:03
Azimuth
287.24° WNW
Elevation
5.258°
Doppler factor
1
Orbital elements
Apogee altitude
502.495 km
Perigee altitude
501.571 km
Semi-major axis
6,880.17 km
Eccentricity
0.0000671
Inclination
97.4256°
RAAN
209.546°
Arg. of periapsis
313.3633°
True anomaly
46.7602°
Mean anomaly
46.7546°
Eccentric anomaly
46.7574°
Mean motion
3.80316 °/min
BSTAR
0.00036277
Orbital period
94.66 mins
Loading maneuver chart data...
Loading SW <> Apogee altitude chart data...
Loading historical data...
Loading historical data...
Loading historical data...
Loading historical data...
Loading historical data...
Loading historical data...
Loading historical data...

FLOCK 4G 32 Visibility forecast

Observer location: undefined°, undefined°

Span
Click to sort rows by Start time (UTC) header in descending order
Start Az.
Max El. time (UTC)
Max El. Az.
Max El.
End time (UTC)
End Az.
6 mins2025-05-09 18:22:08.806Z4.832° NNE2025-05-09 18:25:08.806Z254.174° W42.42°2025-05-09 18:28:08.806Z201.643° SSW
5 mins2025-05-10 05:00:08.806Z138.212° SSE2025-05-10 05:02:08.806Z95.135° ESE32.664°2025-05-10 05:05:08.806Z8.444° NNE
|